EW9551 Weather Reports


Display with metric or nautical units.
time (UTC)temp
F
wind
direction
speed
MPH
gust
MPH
rain 1hr
in
rain 24hr
in
rain mn
in
humidity
%
barometer
mb
20260505123604 65 221 0.0 13.0 0.00 0.62 0.42 78 968.9
20260505120601 65 0 0.0 5.0 0.00 0.65 0.42 82 968.9
20260505113603 64 0 0.0 3.0 0.00 0.68 0.42 82 969.2
20260505110616 63 0 0.0 11.0 0.00 0.70 0.42 90 969.4
20260505100559 58 0 0.0 5.0 0.00 0.78 0.42 97 969.6
20260505093556 56 176 0.0 6.0 0.02 0.81 0.42 97 969.6
20260505090556 55 0 0.0 5.0 0.02 0.84 0.42 97 969.5
20260505083554 54 0 0.0 2.0 0.02 0.85 0.40 97 969.4
20260505080553 54 0 0.0 0.0 0.01 0.87 0.39 97 969.2
20260505073552 54 0 0.0 0.0 0.01 0.87 0.39 97 969.1
20260505070549 53 0 0.0 0.0 0.01 0.87 0.39 97 969.0
20260505063545 53 0 0.0 0.0 0.02 0.86 0.38 96 968.9
20260505060547 53 0 0.0 0.0 0.03 0.87 0.38 96 969.0
20260505053545 52 140 0.0 0.0 0.02 0.86 0.35 96 968.9
20260505050543 52 0 0.0 0.0 0.01 0.86 0.35 96 968.8
20260505033542 52 0 0.0 0.0 0.04 0.83 0.31 96 969.4
20260505030541 52 0 0.0 0.0 0.03 0.80 0.29 96 969.4
20260505023541 52 0 0.0 0.0 0.04 0.80 0.28 96 969.6
20260505021927 52 0 0.0 0.0 0.05 0.77 0.26 96 970.1
20260505013537 52 134 0.0 0.0 0.09 0.76 0.24 96 970.2
20260505010536 52 129 0.0 0.0 0.07 0.72 0.20 96 970.2
20260505003542 52 130 0.0 0.0 0.04 0.67 0.15 96 970.7
20260505000537 53 130 0.0 0.0 0.04 0.65 0.14 96 970.7
20260504233534 53 134 0.0 0.0 0.06 0.63 0.12 95 971.1
20260504230533 53 163 0.0 0.0 0.09 0.61 0.10 95 971.3
20260504223531 53 0 0.0 1.0 0.11 0.57 0.06 95 971.3
20260504220530 53 0 0.0 2.0 0.09 0.52 0.01 95 971.3
20260504213530 53 0 0.0 5.0 0.05 0.46 0.46 95 971.8
20260504210530 53 0 0.0 1.0 0.02 0.43 0.43 95 971.6
20260504203532 53 0 0.0 4.0 0.01 0.41 0.41 95 971.6
20260504200530 53 0 0.0 1.0 0.00 0.40 0.40 95 971.8
20260504193530 53 0 0.0 0.0 0.00 0.40 0.40 95 971.7
20260504191912 53 0 0.0 0.0 0.00 0.40 0.40 94 971.8
20260504183532 54 0 0.0 0.0 0.00 0.40 0.40 94 971.9
20260504180530 54 0 0.0 0.0 0.01 0.40 0.40 94 972.2
20260504173533 54 0 0.0 0.0 0.02 0.40 0.40 94 972.5
20260504170529 54 132 0.0 0.0 0.02 0.39 0.39 94 972.6
20260504150530 54 162 0.0 0.0 0.02 0.36 0.36 93 973.4
20260504130527 53 0 0.0 2.0 0.05 0.32 0.32 94 974.3